{"data":{"norad_id":53860,"epoch":"2026-05-25T03:40:57.432864Z","epoch_age_seconds":68665,"freshness":"FRESH","line1":"1 53860U 22114AU  26145.15344251  .00000523  00000+0  50954-4 0  9991","line2":"2 53860  53.2135 300.9764 0001094  86.1673 273.9445 15.08839307204416","mean_motion":15.08839307,"eccentricity":0.0001094,"inclination_deg":53.2135,"raan_deg":300.9764,"arg_perigee_deg":86.1673,"mean_anomaly_deg":273.9445,"bstar":5.0954e-5,"rev_number":20441,"period_min":95.437598511609,"perigee_km":538.98869084239,"apogee_km":540.50232353496,"semimajor_km":6917.8825071887,"source":"CELESTRAK","updated_at":"2026-05-25T13:38:17.578617Z"}}